User: anonymous   Login
Location: Passo di Treia
(43.2833°N, 13.3333°E)
Time: 07:02:38
(UTC+00:00)
Language:

Cosmos 1536 - Orbit

View from above orbital plane
View from above orbital plane
View from above satellite
View from above satellite

Ground track
Ground track

The orbit data is extracted from the following two-line orbital elements,

1 14699U 84013A   20050.12919737 -.00000183  00000-0 -14728-4 0  9991
2 14699  82.5240 103.3272 0011357 329.3787  30.6776 15.05548858960065
Epoch (UTC): 19 February 2020 03:06:02
Eccentricity: 0.0011357
inclination: 82.5240°
perigee height: 542 km
apogee height: 557 km
right ascension of ascending node: 103.3272°
argument of perigee: 329.3787°
revolutions per day: 15.05548858
mean anomaly at epoch: 30.6776°
orbit number at epoch: 96006

The dashed part of the orbit path shows where the satellite is in the earth's shadow,  

DLR